Athens, OH

10:09 AM EDT on August 22, 2017 (GMT -0400)
Ohio University

Weather History for KUNI - December, 2013

Change the Weather History Date:

Wednesday, December 4, 2013

  Actual Average (KPKB) Record (KPKB)
Temperature  
Mean Temperature 50 °F -  
Max Temperature 64 °F 46 °F 72 °F (1982)
Min Temperature 36 °F 30 °F 10 °F (1966)
Degree Days  
Heating Degree Days 15    
Moisture  
Dew Point 45 °F    
Average Humidity 77    
Maximum Humidity 96    
Minimum Humidity 58    
Precipitation  
Precipitation 0.00 in - - ()
Sea Level Pressure  
Sea Level Pressure 29.87 in    
Wind  
Wind Speed 2 mph (SSE)    
Max Wind Speed 9 mph    
Max Gust Speed -    
Visibility 8 miles    
Events      
Averages and records for this station are not official NWS values.
T = Trace of Precipitation, MM = Missing Value Source: NWS Daily Summary

Daily Weather History Graph

Daily Weather History Graph

Search for Another Location

Airport or City:

Trip Planner

Search our weather history database for the weather conditions in past years. The results will help you decide how hot, cold, wet, or windy it might be!

Date:

Astronomy

Dec. 04, 2013 Rise Set
Actual Time 7:32 AM EST 5:05 PM EST
Civil Twilight 7:02 AM EST 5:35 PM EST
Nautical Twilight 6:29 AM EST 6:09 PM EST
Astronomical Twilight 5:57 AM EST 6:41 PM EST
Moon 8:59 AM EST (12/4) 7:14 PM EST (12/4)
Length of Visible Light 10h 32m
Length of Day
9h 33m
Waxing Crescent, 4% of the Moon is Illuminated
Dec 4
Waxing Crescent
Dec 9
First Quarter
Dec 17
Full
Dec 25
Last Quarter
Jan 1
New

Hourly Weather History & Observations

Time (EST) Temp. Windchill Dew Point Humidity Pressure Visibility Wind Dir Wind Speed Gust Speed Precip Events Conditions
12:15 AM 40.8 °F 38.8 °F 39.2 °F 94% 29.89 in 7.0 mi West 3.5 mph - N/A   Overcast
12:35 AM 41.0 °F - 39.4 °F 94% 29.89 in 7.0 mi Calm Calm - N/A   Overcast
12:55 AM 41.5 °F - 40.1 °F 95% 29.89 in 7.0 mi Calm Calm - N/A   Overcast
1:15 AM 41.5 °F - 39.7 °F 93% 29.88 in 7.0 mi Calm Calm - N/A   Overcast
1:35 AM 41.5 °F - 39.7 °F 93% 29.89 in 7.0 mi Calm Calm - N/A   Overcast
1:55 AM 41.0 °F - 39.2 °F 93% 29.89 in 5.0 mi Calm Calm - N/A   Scattered Clouds
2:15 AM 39.4 °F - 37.6 °F 93% 29.89 in 5.0 mi Calm Calm - N/A   Scattered Clouds
2:35 AM 39.2 °F - 37.8 °F 95% 29.89 in 5.0 mi Calm Calm - N/A   Mostly Cloudy
2:55 AM 39.2 °F - 37.8 °F 95% 29.89 in 5.0 mi Calm Calm - N/A   Overcast
3:15 AM 39.2 °F - 37.6 °F 94% 29.88 in 5.0 mi Calm Calm - N/A   Mostly Cloudy
3:35 AM 37.8 °F - 36.3 °F 95% 29.87 in 5.0 mi Calm Calm - N/A   Scattered Clouds
3:55 AM 36.5 °F - 35.2 °F 95% 29.87 in 3.0 mi Calm Calm - N/A   Clear
4:15 AM 36.3 °F 33.7 °F 35.2 °F 96% 29.88 in 3.0 mi West 3.5 mph - N/A   Scattered Clouds
4:35 AM 37.6 °F - 36.5 °F 96% 29.89 in 4.0 mi Calm Calm - N/A   Overcast
4:55 AM 38.1 °F - 37.0 °F 96% 29.90 in 5.0 mi Calm Calm - N/A   Overcast
5:15 AM 39.0 °F - 37.6 °F 95% 29.90 in 5.0 mi Calm Calm - N/A   Overcast
5:35 AM 39.0 °F - 37.8 °F 95% 29.91 in 7.0 mi Calm Calm - N/A   Mostly Cloudy
5:55 AM 39.7 °F - 38.5 °F 95% 29.92 in 7.0 mi Calm Calm - N/A   Overcast
6:15 AM 39.7 °F - 38.3 °F 95% 29.92 in 7.0 mi Calm Calm - N/A   Overcast
6:35 AM 40.1 °F - 38.7 °F 95% 29.93 in 7.0 mi Calm Calm - N/A   Overcast
6:55 AM 40.5 °F - 38.8 °F 94% 29.91 in 7.0 mi Calm Calm - N/A   Mostly Cloudy
7:15 AM 39.7 °F - 38.3 °F 95% 29.91 in 5.0 mi Calm Calm - N/A   Scattered Clouds
7:35 AM 38.8 °F - 37.4 °F 95% 29.92 in 3.0 mi Calm Calm - N/A   Scattered Clouds
7:55 AM 38.7 °F - 37.4 °F 95% 29.92 in 4.0 mi Calm Calm - N/A   Scattered Clouds
8:15 AM 39.2 °F - 37.6 °F 94% 29.93 in 4.0 mi Calm Calm - N/A   Scattered Clouds
8:35 AM 40.3 °F - 39.0 °F 95% 29.93 in 7.0 mi Calm Calm - N/A   Clear
8:55 AM 42.8 °F - 40.5 °F 91% 29.93 in 7.0 mi Calm Calm - N/A   Clear
9:15 AM 44.8 °F - 42.4 °F 91% 29.94 in 10.0 mi Calm Calm - N/A   Scattered Clouds
9:35 AM 48.2 °F - 43.9 °F 85% 29.94 in 10.0 mi Calm Calm - N/A   Clear
9:55 AM 52.2 °F - 45.5 °F 78% 29.94 in 10.0 mi South 4.6 mph - N/A   Clear
10:15 AM 54.7 °F - 44.6 °F 69% 29.95 in 10.0 mi SSE 5.8 mph - N/A   Clear
10:35 AM 55.9 °F - 45.1 °F 67% 29.94 in 10.0 mi SSE 4.6 mph - N/A   Clear
10:55 AM 57.9 °F - 45.7 °F 64% 29.93 in 10.0 mi SSE 8.1 mph - N/A   Clear
11:15 AM 58.8 °F - 46.2 °F 63% 29.93 in 10.0 mi SSE 4.6 mph - N/A   Clear
11:35 AM 61.2 °F - 47.1 °F 60% 29.91 in 10.0 mi SSE 4.6 mph - N/A   Scattered Clouds
11:55 AM 62.4 °F - 47.3 °F 58% 29.89 in 10.0 mi SSE 6.9 mph - N/A   Clear
12:15 PM 62.1 °F - 47.8 °F 60% 29.89 in 10.0 mi SSE 5.8 mph - N/A   Scattered Clouds
12:35 PM 63.3 °F - 48.2 °F 58% 29.87 in 10.0 mi South 5.8 mph - N/A   Scattered Clouds
12:55 PM 63.7 °F - 49.1 °F 59% 29.86 in 10.0 mi South 8.1 mph - N/A   Scattered Clouds
1:15 PM 63.5 °F - 49.1 °F 59% 29.86 in 10.0 mi South 9.2 mph - N/A   Mostly Cloudy
1:35 PM 63.5 °F - 50.0 °F 61% 29.86 in 10.0 mi South 6.9 mph - N/A   Overcast
1:55 PM 63.7 °F - 50.0 °F 61% 29.84 in 10.0 mi SSE 5.8 mph - N/A   Overcast
2:15 PM 63.9 °F - 50.2 °F 61% 29.83 in 10.0 mi South 5.8 mph - N/A   Overcast
2:35 PM 64.2 °F - 50.4 °F 61% 29.82 in 10.0 mi SSE 8.1 mph - N/A   Overcast
2:55 PM 64.4 °F - 50.4 °F 60% 29.83 in 10.0 mi SSE 9.2 mph - N/A   Overcast
3:15 PM 63.9 °F - 50.4 °F 61% 29.82 in 10.0 mi SE 3.5 mph - N/A   Overcast
3:35 PM 63.5 °F - 50.2 °F 62% 29.83 in 10.0 mi SSE 5.8 mph - N/A   Overcast
3:55 PM 63.1 °F - 50.0 °F 62% 29.84 in 10.0 mi SSE 3.5 mph - N/A   Overcast
4:15 PM 62.8 °F - 50.0 °F 63% 29.84 in 10.0 mi SSE 4.6 mph - N/A   Overcast
4:35 PM 62.2 °F - 50.0 °F 64% 29.82 in 10.0 mi SE 4.6 mph - N/A   Mostly Cloudy
4:55 PM 61.9 °F - 50.0 °F 65% 29.82 in 10.0 mi Calm Calm - N/A   Mostly Cloudy
5:15 PM 61.7 °F - 49.6 °F 65% 29.82 in 10.0 mi SE 3.5 mph - N/A   Mostly Cloudy
5:35 PM 61.2 °F - 49.5 °F 65% 29.82 in 10.0 mi ESE 3.5 mph - N/A   Mostly Cloudy
5:55 PM 61.2 °F - 49.5 °F 65% 29.81 in 10.0 mi Calm Calm - N/A   Mostly Cloudy
6:15 PM 59.9 °F - 49.3 °F 68% 29.82 in 10.0 mi Calm Calm - N/A   Scattered Clouds
6:35 PM 59.2 °F - 49.1 °F 69% 29.82 in 10.0 mi Calm Calm - N/A   Overcast
6:55 PM 57.7 °F - 48.7 °F 72% 29.82 in 10.0 mi SE 3.5 mph - N/A   Mostly Cloudy
7:15 PM 56.7 °F - 48.4 °F 74% 29.82 in 10.0 mi SSE 3.5 mph - N/A   Clear
7:35 PM 56.7 °F - 48.6 °F 74% 29.82 in 10.0 mi SE 3.5 mph - N/A   Clear
7:55 PM 57.2 °F - 48.4 °F 72% 29.82 in 10.0 mi SSE 3.5 mph - N/A   Clear
8:15 PM 57.4 °F - 48.6 °F 72% 29.82 in 10.0 mi South 3.5 mph - N/A   Clear
8:35 PM 57.2 °F - 48.4 °F 72% 29.82 in 10.0 mi SSE 4.6 mph - N/A   Clear
8:55 PM 57.4 °F - 48.6 °F 72% 29.83 in 10.0 mi South 3.5 mph - N/A   Clear
9:15 PM 58.1 °F - 48.6 °F 71% 29.84 in 10.0 mi South 4.6 mph - N/A   Clear
9:35 PM 58.1 °F - 48.6 °F 71% 29.83 in 10.0 mi South 5.8 mph - N/A   Clear
9:55 PM 59.0 °F - 49.1 °F 70% 29.83 in 10.0 mi South 5.8 mph - N/A   Clear
10:15 PM 59.4 °F - 49.3 °F 69% 29.82 in 10.0 mi South 6.9 mph - N/A   Clear
10:35 PM 59.4 °F - 49.3 °F 69% 29.83 in 10.0 mi South 5.8 mph - N/A   Clear
10:55 PM 59.0 °F - 49.3 °F 70% 29.84 in 10.0 mi SSE 5.8 mph - N/A   Clear
11:15 PM 58.8 °F - 49.3 °F 71% 29.84 in 10.0 mi South 6.9 mph - N/A   Clear
11:35 PM 59.4 °F - 49.6 °F 70% 29.85 in 10.0 mi South 4.6 mph - N/A   Clear
11:55 PM 59.9 °F - 50.0 °F 70% 29.86 in 10.0 mi SSW 5.8 mph - N/A   Clear